"startDT [UTC]","vpos","CH4 [ppm]","stdev(CH4) [ppm]","CO2 [ppm]","stdev(CO2) [ppm]","H2O [ppm]","stdev(H2O)","p_LGR [torr]","T_LGR [C]","mt1_LGR [us]","mt2_LGR [us]","T_ECpre [C]","T_EC1 [C]","T_EC2 [C]","p_inlet [hPa]","p_in [hPa]","p_out [hPa]","T_inlet [C]","RH_inlet [%]","dwpt_inlet [C]","T_vent [C]","RH_vent [%]","dwpt_vent [C]","flow_vent [l min-1]","flow_inlet [l min-1]","dwpt_sample [C]","T_room [C]"
2012-01-03 00:00:00,0.0,1.9336,0.0008,405.80,0.24,2.0,8.2,138.12,28.12,24.60,36.30,0.04,-272.74,-272.74,-48,553,-924,22.7,2.2,-27.9,22.8,2.3,-27.5,5.73,2.27,-28.9,28.3
2012-01-03 00:01:00,0.0,1.9337,0.0009,405.94,0.23,2.7,10.2,138.12,28.13,24.60,36.30,0.04,-272.74,-272.74,-47,553,-924,22.7,2.2,-27.9,22.8,2.3,-27.6,5.73,2.45,-28.9,28.2
2012-01-03 00:02:00,0.0,1.9334,0.0008,405.86,0.21,2.1,7.9,138.12,28.13,24.59,36.30,0.04,-272.74,-272.74,-47,553,-924,22.7,2.2,-28.0,22.9,2.3,-27.6,5.73,2.40,-28.9,28.2
2012-01-03 00:03:00,0.0,1.9326,0.0010,405.82,0.21,2.3,8.5,138.12,28.13,24.60,36.30,0.04,-272.74,-272.74,-48,553,-924,22.7,2.2,-28.1,22.8,2.3,-27.7,5.73,2.30,-29.0,28.3
2012-01-03 00:04:00,0.0,1.9322,0.0010,405.85,0.19,0.9,5.4,138.12,28.14,24.60,36.30,0.04,-272.74,-272.74,-47,553,-924,22.7,2.2,-28.0,22.8,2.3,-27.7,5.73,2.50,-29.0,28.2
2012-01-03 00:05:00,0.0,1.9323,0.0011,405.81,0.20,2.7,10.9,138.12,28.14,24.59,36.31,0.04,-272.74,-272.74,-47,553,-924,22.6,2.2,-28.1,22.8,2.3,-27.7,5.73,2.31,-29.1,28.2
2012-01-03 00:06:00,0.0,1.9318,0.0012,405.82,0.21,1.6,8.6,138.12,28.14,24.60,36.30,0.04,-272.74,-272.74,-48,553,-924,22.6,2.2,-28.1,22.8,2.2,-27.8,5.73,2.37,-29.1,28.2
2012-01-03 00:07:00,0.0,1.9315,0.0010,405.79,0.18,1.5,7.0,138.12,28.15,24.60,36.31,0.04,-272.74,-272.74,-47,554,-924,22.6,2.2,-28.3,22.8,2.2,-27.8,5.73,2.47,-29.1,28.2
2012-01-03 00:08:00,0.0,1.9313,0.0009,405.84,0.19,0.5,6.0,138.12,28.15,24.60,36.30,0.04,-272.74,-272.74,-47,553,-924,22.6,2.2,-28.2,22.8,2.2,-27.8,5.73,2.27,-29.1,28.2
2012-01-03 00:09:00,0.0,1.9314,0.0007,405.79,0.24,1.0,7.5,138.12,28.15,24.60,36.30,0.04,-272.74,-272.74,-47,553,-924,22.6,2.2,-28.1,22.8,2.2,-27.9,5.73,2.44,-29.1,28.2
2012-01-03 00:10:00,0.0,1.9310,0.0008,405.80,0.19,1.1,6.9,138.12,28.16,24.60,36.31,0.04,-272.74,-272.74,-47,553,-924,22.5,2.2,-28.1,22.7,2.2,-27.9,5.73,2.40,-29.2,28.3
2012-01-03 00:11:00,0.0,1.9313,0.0010,405.79,0.22,3.2,10.7,138.12,28.16,24.59,36.30,0.04,-272.74,-272.74,-47,553,-924,22.5,2.2,-28.2,22.7,2.2,-27.8,5.73,2.29,-29.2,28.2
2012-01-03 00:12:00,0.0,1.9312,0.0008,405.73,0.21,0.2,3.8,138.12,28.16,24.59,36.31,0.04,-272.74,-272.74,-47,553,-924,22.5,2.2,-28.2,22.7,2.3,-27.8,5.73,2.49,-29.2,28.3
2012-01-03 00:13:00,0.0,1.9307,0.0010,405.76,0.21,-0.7,2.2,138.12,28.16,24.60,36.30,0.04,-272.74,-272.74,-47,553,-924,22.5,2.2,-28.2,22.7,2.3,-27.7,5.73,2.33,-29.2,28.2
2012-01-03 00:14:00,0.0,1.9310,0.0008,405.80,0.19,2.3,11.3,138.12,28.17,24.59,36.30,0.04,-272.74,-272.74,-47,553,-924,22.4,2.2,-28.2,22.7,2.3,-27.8,5.73,2.35,-29.3,28.2
2012-01-03 00:15:00,0.0,1.9309,0.0010,405.83,0.20,0.2,4.9,138.12,28.17,24.60,36.30,0.04,-272.74,-272.74,-47,553,-924,22.4,2.2,-28.2,22.7,2.3,-27.8,5.73,2.49,-29.3,28.2
2012-01-03 00:16:00,0.0,1.9313,0.0010,405.85,0.21,-0.3,2.8,138.12,28.17,24.60,36.30,0.04,-272.74,-272.74,-47,553,-924,22.4,2.2,-28.1,22.7,2.3,-27.8,5.73,2.29,-29.3,28.2
2012-01-03 00:17:00,0.0,1.9313,0.0010,405.67,0.23,-0.3,3.8,138.12,28.18,24.60,36.31,0.04,-272.74,-272.74,-47,553,-924,22.4,2.2,-28.1,22.7,2.3,-27.8,5.73,2.41,-29.3,28.2
2012-01-03 00:18:00,0.0,1.9317,0.0009,405.81,0.16,-0.1,4.8,138.12,28.18,24.60,36.30,0.04,-272.74,-272.74,-46,553,-924,22.3,2.2,-28.1,22.6,2.3,-27.7,5.73,2.46,-29.3,28.2
2012-01-03 00:19:00,0.0,1.9318,0.0010,405.77,0.21,-0.3,3.7,138.12,28.18,24.59,36.30,0.04,-272.74,-272.74,-47,553,-924,22.3,2.2,-28.1,22.6,2.3,-27.7,5.73,2.28,-29.3,28.2
2012-01-03 00:20:00,0.0,1.9317,0.0008,405.73,0.21,1.2,9.6,138.12,28.18,24.59,36.30,0.04,-272.74,-272.74,-47,553,-924,22.3,2.3,-28.0,22.6,2.3,-27.7,5.73,2.45,-29.3,28.2
2012-01-03 00:21:00,0.0,1.9319,0.0010,405.75,0.20,-0.5,2.0,138.12,28.18,24.60,36.31,0.04,-272.74,-272.74,-46,553,-924,22.3,2.3,-28.1,22.6,2.3,-27.7,5.73,2.44,-29.3,28.1
2012-01-03 00:22:00,0.0,1.9319,0.0009,405.70,0.18,-0.0,3.5,138.12,28.18,24.60,36.31,0.04,-272.74,-272.74,-46,553,-924,22.3,2.3,-28.1,22.6,2.3,-27.7,5.73,2.27,-29.3,28.1
2012-01-03 00:23:00,0.0,1.9323,0.0008,405.67,0.20,-0.4,2.6,138.12,28.19,24.60,36.31,0.04,-272.74,-272.74,-47,553,-924,22.3,2.3,-28.0,22.5,2.3,-27.7,5.73,2.47,-29.4,28.1
2012-01-03 00:24:00,0.0,1.9331,0.0009,405.86,0.21,0.4,5.4,138.12,28.19,24.59,36.30,0.04,-272.74,-272.74,-46,553,-924,22.3,2.3,-27.9,22.5,2.3,-27.6,5.73,2.42,-29.4,28.1
2012-01-03 00:25:00,0.0,1.9330,0.0010,405.71,0.18,0.1,6.1,138.12,28.18,24.60,36.31,0.04,-272.74,-272.74,-46,552,-924,22.3,2.3,-27.9,22.5,2.3,-27.6,5.73,2.28,-29.4,28.1
2012-01-03 00:26:00,0.0,1.9333,0.0009,405.74,0.20,0.3,6.2,138.12,28.18,24.60,36.30,0.04,-272.74,-272.74,-46,553,-924,22.3,2.3,-27.9,22.5,2.3,-27.5,5.73,2.48,-29.4,28.1
2012-01-03 00:27:00,0.0,1.9330,0.0008,405.79,0.18,-0.5,2.2,138.12,28.19,24.60,36.30,0.04,-272.74,-272.74,-46,553,-924,22.2,2.3,-27.8,22.5,2.3,-27.5,5.73,2.40,-29.4,28.1
2012-01-03 00:28:00,0.0,1.9333,0.0008,405.81,0.20,0.9,6.8,138.12,28.19,24.60,36.30,0.04,-272.74,-272.74,-46,553,-924,22.2,2.3,-27.8,22.5,2.3,-27.5,5.73,2.28,-29.4,28.1
2012-01-03 00:29:00,0.0,1.9329,0.0008,405.76,0.23,-0.1,3.9,138.12,28.19,24.60,36.30,0.04,-272.74,-272.74,-46,552,-924,22.3,2.3,-27.8,22.5,2.3,-27.5,5.73,2.47,-29.4,28.0
2012-01-03 00:30:00,0.0,1.9331,0.0008,405.82,0.21,-0.7,1.3,138.12,28.19,24.60,36.30,0.04,-272.74,-272.74,-46,553,-924,22.2,2.3,-27.8,22.5,2.3,-27.5,5.73,2.42,-29.4,28.0
2012-01-03 00:31:00,0.0,1.9335,0.0009,405.77,0.22,-0.8,1.9,138.12,28.19,24.60,36.30,0.04,-272.74,-272.74,-46,553,-924,22.2,2.3,-27.9,22.5,2.3,-27.5,5.73,2.28,-29.4,28.0
2012-01-03 00:32:00,0.0,1.9334,0.0008,405.77,0.22,-0.4,2.2,138.12,28.19,24.60,36.30,0.04,-272.74,-272.74,-46,552,-924,22.2,2.3,-27.8,22.5,2.3,-27.5,5.73,2.46,-29.4,28.0
2012-01-03 00:33:00,0.0,1.9335,0.0010,405.70,0.20,-0.6,2.3,138.12,28.20,24.59,36.30,0.04,-272.74,-272.74,-46,552,-924,22.2,2.3,-27.9,22.5,2.3,-27.5,5.73,2.43,-29.4,28.0
2012-01-03 00:34:00,0.0,1.9335,0.0011,405.78,0.24,0.2,4.4,138.12,28.20,24.59,36.30,0.04,-272.74,-272.74,-46,552,-924,22.2,2.3,-27.9,22.5,2.3,-27.5,5.73,2.28,-29.3,28.0
2012-01-03 00:35:00,0.0,1.9326,0.0010,405.70,0.21,2.4,12.3,138.12,28.20,24.60,36.31,0.04,-272.74,-272.74,-46,552,-924,22.2,2.3,-27.9,22.4,2.3,-27.6,5.73,2.45,-29.4,28.0
2012-01-03 00:36:00,0.0,1.9329,0.0009,405.69,0.23,-0.2,3.8,138.12,28.20,24.60,36.31,0.04,-272.74,-272.74,-46,552,-924,22.2,2.3,-27.8,22.5,2.3,-27.5,5.73,2.45,-29.3,28.0
2012-01-03 00:37:00,0.0,1.9339,0.0010,405.74,0.24,-0.7,2.4,138.12,28.20,24.59,36.30,0.04,-272.74,-272.74,-46,552,-924,22.2,2.3,-27.9,22.5,2.3,-27.5,5.73,2.29,-29.3,28.0
2012-01-03 00:38:00,0.0,1.9333,0.0009,405.70,0.20,-0.4,3.6,138.12,28.20,24.60,36.31,0.04,-272.74,-272.74,-46,552,-924,22.2,2.3,-27.8,22.5,2.3,-27.6,5.73,2.41,-29.3,28.0
2012-01-03 00:39:00,0.0,1.9334,0.0010,405.71,0.23,0.2,4.9,138.12,28.20,24.60,36.31,0.04,-272.74,-272.74,-46,553,-924,22.2,2.3,-27.8,22.5,2.3,-27.5,5.73,2.48,-29.3,28.0
2012-01-03 00:40:00,0.0,1.9336,0.0011,405.69,0.20,-0.7,2.6,138.12,28.20,24.60,36.31,0.04,-272.74,-272.74,-46,552,-924,22.2,2.3,-27.8,22.4,2.3,-27.5,5.73,2.30,-29.3,28.0
2012-01-03 00:41:00,0.0,1.9341,0.0007,405.79,0.20,-0.3,3.7,138.12,28.20,24.60,36.30,0.04,-272.74,-272.74,-46,552,-924,22.2,2.3,-27.9,22.4,2.3,-27.5,5.73,2.38,-29.3,28.0
2012-01-03 00:42:00,0.0,1.9349,0.0008,405.78,0.21,-0.2,5.5,138.12,28.20,24.60,36.30,0.04,-272.74,-272.74,-46,552,-924,22.2,2.3,-27.8,22.4,2.4,-27.4,5.73,2.49,-29.3,28.0
2012-01-03 00:43:00,0.0,1.9363,0.0008,405.70,0.19,-0.1,3.5,138.12,28.20,24.59,36.30,0.04,-272.74,-272.74,-46,552,-924,22.2,2.3,-27.7,22.4,2.4,-27.4,5.73,2.31,-29.2,28.1
2012-01-03 00:44:00,0.0,1.9359,0.0010,405.68,0.21,-0.9,0.8,138.12,28.20,24.59,36.31,0.04,-272.74,-272.74,-46,552,-924,22.2,2.3,-27.7,22.5,2.4,-27.3,5.73,2.36,-29.2,28.0
2012-01-03 00:45:00,0.0,1.9355,0.0009,405.75,0.21,1.7,8.6,138.12,28.20,24.60,36.30,0.04,-272.74,-272.74,-46,552,-924,22.2,2.4,-27.6,22.5,2.4,-27.3,5.73,2.50,-29.2,28.0
2012-01-03 00:46:00,0.0,1.9364,0.0009,405.71,0.21,0.3,6.5,138.12,28.20,24.60,36.31,0.04,-272.74,-272.74,-46,552,-924,22.2,2.4,-27.6,22.4,2.4,-27.3,5.73,2.33,-29.2,28.0
2012-01-03 00:47:00,0.0,1.9370,0.0010,405.79,0.20,-0.3,2.4,138.12,28.21,24.59,36.30,0.04,-272.74,-272.74,-46,552,-924,22.2,2.4,-27.6,22.4,2.4,-27.2,5.73,2.33,-29.2,28.0
2012-01-03 00:48:00,0.0,1.9372,0.0009,405.87,0.22,0.8,5.8,138.12,28.20,24.60,36.30,0.04,-272.74,-272.74,-46,552,-924,22.2,2.4,-27.6,22.5,2.4,-27.1,5.73,2.50,-29.2,28.0
2012-01-03 00:49:00,0.0,1.9369,0.0011,405.80,0.22,-0.3,2.9,138.12,28.20,24.60,36.30,0.04,-272.74,-272.74,-46,552,-924,22.3,2.4,-27.5,22.5,2.4,-27.1,5.73,2.35,-29.2,28.0
2012-01-03 00:50:00,0.0,1.9371,0.0010,405.83,0.21,1.7,8.0,138.12,28.20,24.60,36.30,0.04,-272.74,-272.74,-46,552,-924,22.3,2.4,-27.5,22.5,2.4,-27.2,5.73,2.32,-29.2,28.0
2012-01-03 00:51:00,0.0,1.9371,0.0011,405.80,0.21,-0.7,1.5,138.12,28.21,24.60,36.30,0.04,-272.74,-272.74,-46,552,-924,22.2,2.4,-27.5,22.5,2.4,-27.1,5.73,2.50,-29.2,28.0
2012-01-03 00:52:00,0.0,1.9368,0.0009,405.76,0.20,2.3,8.7,138.12,28.21,24.60,36.30,0.04,-272.74,-272.74,-46,552,-924,22.2,2.4,-27.6,22.4,2.4,-27.2,5.73,2.38,-29.1,28.0
2012-01-03 00:53:00,0.0,1.9366,0.0010,405.78,0.18,0.7,6.4,138.12,28.21,24.60,36.30,0.04,-272.74,-272.74,-46,552,-924,22.3,2.4,-27.5,22.5,2.4,-27.2,5.73,2.30,-29.1,28.0
2012-01-03 00:54:00,0.0,1.9373,0.0011,405.79,0.19,0.8,6.5,138.12,28.21,24.59,36.30,0.04,-272.74,-272.74,-46,552,-925,22.3,2.4,-27.6,22.4,2.4,-27.2,5.73,2.47,-29.1,28.0
2012-01-03 00:55:00,0.0,1.9371,0.0008,405.81,0.21,-0.3,3.5,138.12,28.21,24.60,36.30,0.04,-272.74,-272.74,-46,552,-925,22.3,2.4,-27.5,22.5,2.4,-27.2,5.73,2.42,-29.1,28.0
2012-01-03 00:56:00,0.0,1.9377,0.0008,405.66,0.19,-0.2,3.6,138.12,28.21,24.59,36.31,0.04,-272.74,-272.74,-46,552,-925,22.2,2.4,-27.6,22.5,2.4,-27.1,5.73,2.28,-29.1,28.0
2012-01-03 00:57:00,0.0,1.9371,0.0011,405.75,0.20,1.1,6.7,138.12,28.21,24.60,36.31,0.04,-272.74,-272.74,-46,552,-924,22.3,2.4,-27.5,22.5,2.4,-27.1,5.73,2.46,-29.1,28.0
2012-01-03 00:58:00,0.0,1.9371,0.0010,405.76,0.23,2.5,12.9,138.12,28.22,24.60,36.30,0.04,-272.74,-272.74,-46,552,-925,22.3,2.4,-27.5,22.5,2.4,-27.2,5.73,2.45,-29.1,28.0
2012-01-03 00:59:00,0.0,1.9368,0.0008,405.79,0.22,0.8,6.7,138.12,28.22,24.59,36.30,0.04,-272.74,-272.74,-46,552,-925,22.2,2.4,-27.6,22.5,2.4,-27.2,5.73,2.29,-29.1,28.0
2012-01-03 01:00:00,0.0,1.9372,0.0010,405.79,0.23,2.9,8.9,138.12,28.22,24.60,36.31,0.04,-272.73,-272.74,-46,552,-925,22.2,2.4,-27.6,22.4,2.4,-27.2,5.73,2.42,-29.1,28.0
2012-01-03 01:01:00,0.0,1.9381,0.0010,405.78,0.19,1.4,7.4,138.12,28.22,24.60,36.31,0.04,-272.74,-272.74,-46,552,-925,22.3,2.4,-27.6,22.5,2.4,-27.1,5.73,2.47,-29.1,28.0
2012-01-03 01:02:00,0.0,1.9373,0.0009,405.85,0.23,1.5,7.3,138.12,28.22,24.60,36.30,0.04,-272.74,-272.74,-46,552,-925,22.3,2.4,-27.5,22.5,2.4,-27.2,5.73,2.30,-29.0,28.0
2012-01-03 01:03:00,0.0,1.9365,0.0008,405.72,0.22,-0.3,2.8,138.12,28.22,24.60,36.31,0.04,-272.74,-272.74,-46,552,-925,22.3,2.4,-27.6,22.5,2.4,-27.3,5.73,2.38,-29.0,28.0
2012-01-03 01:04:00,0.0,1.9375,0.0010,405.76,0.21,1.5,7.4,138.12,28.22,24.60,36.31,0.04,-272.74,-272.74,-46,552,-925,22.3,2.3,-27.7,22.4,2.4,-27.3,5.73,2.50,-29.0,27.9
2012-01-03 01:05:00,0.0,1.9376,0.0010,405.76,0.22,0.4,5.1,138.12,28.22,24.60,36.30,0.04,-272.74,-272.74,-46,552,-925,22.2,2.3,-27.7,22.5,2.4,-27.4,5.73,2.33,-29.0,27.8
2012-01-03 01:06:00,0.0,1.9367,0.0009,405.78,0.18,1.9,10.3,138.12,28.23,24.60,36.30,0.04,-272.74,-272.74,-46,552,-925,22.2,2.3,-27.7,22.5,2.4,-27.4,5.73,2.33,-29.0,27.8
2012-01-03 01:07:00,0.0,1.9382,0.0010,405.79,0.19,3.4,11.6,138.12,28.23,24.59,36.30,0.04,-272.74,-272.74,-46,552,-925,22.2,2.3,-27.7,22.4,2.4,-27.4,5.73,2.50,-29.0,27.8
2012-01-03 01:08:00,0.0,1.9401,0.0008,405.84,0.16,1.1,6.7,138.12,28.23,24.59,36.30,0.04,-272.74,-272.74,-46,552,-924,22.2,2.4,-27.6,22.5,2.4,-27.3,5.73,2.37,-29.0,27.8
2012-01-03 01:09:00,0.0,1.9397,0.0012,405.87,0.23,0.2,6.6,138.12,28.23,24.60,36.30,0.04,-272.74,-272.74,-46,552,-925,22.2,2.4,-27.6,22.5,2.4,-27.2,5.73,2.30,-29.0,27.8
2012-01-03 01:10:00,0.0,1.9370,0.0010,405.73,0.16,2.6,10.3,138.12,28.23,24.60,36.31,0.04,-272.74,-272.74,-46,552,-925,22.2,2.4,-27.6,22.5,2.4,-27.3,5.73,2.49,-29.0,27.9
2012-01-03 01:11:00,0.0,1.9368,0.0008,405.71,0.20,2.7,10.4,138.12,28.23,24.60,36.31,0.04,-272.74,-272.74,-46,552,-925,22.2,2.4,-27.6,22.5,2.4,-27.3,5.73,2.39,-29.0,27.8
2012-01-03 01:12:00,0.0,1.9366,0.0009,405.71,0.20,2.8,10.5,138.12,28.23,24.59,36.30,0.04,-272.74,-272.74,-46,551,-925,22.2,2.3,-27.7,22.4,2.4,-27.4,5.73,2.29,-29.0,27.8
2012-01-03 01:13:00,0.0,1.9363,0.0010,405.78,0.21,1.1,5.7,138.12,28.23,24.60,36.30,0.04,-272.74,-272.74,-46,552,-925,22.2,2.3,-27.7,22.5,2.4,-27.4,5.73,2.46,-29.0,27.8
2012-01-03 01:14:00,0.0,1.9361,0.0010,405.72,0.19,0.8,4.3,138.12,28.23,24.60,36.31,0.04,-272.74,-272.74,-45,552,-925,22.2,2.3,-27.9,22.4,2.4,-27.5,5.73,2.45,-28.9,27.8
2012-01-03 01:15:00,0.0,1.9375,0.0013,405.80,0.20,3.4,10.1,138.12,28.23,24.59,36.30,0.04,-272.74,-272.74,-46,552,-925,22.2,2.3,-27.9,22.4,2.3,-27.5,5.73,2.29,-28.9,27.8
2012-01-03 01:16:00,0.0,1.9376,0.0011,405.87,0.19,1.1,6.4,138.12,28.23,24.60,36.30,0.04,-272.74,-272.74,-46,552,-925,22.1,2.3,-27.8,22.4,2.4,-27.5,5.73,2.40,-28.9,27.8
2012-01-03 01:17:00,0.0,1.9373,0.0008,405.81,0.17,0.2,4.8,138.12,28.23,24.60,36.30,0.04,-272.74,-272.74,-46,552,-925,22.1,2.3,-27.7,22.4,2.4,-27.4,5.73,2.49,-28.9,27.8
2012-01-03 01:18:00,0.0,1.9372,0.0010,405.75,0.21,2.5,9.5,138.12,28.23,24.60,36.30,0.04,-272.74,-272.74,-45,552,-925,22.1,2.3,-27.8,22.4,2.4,-27.4,5.73,2.33,-28.9,27.8
2012-01-03 01:19:00,0.0,1.9382,0.0008,405.78,0.17,0.4,6.0,138.12,28.24,24.60,36.31,0.04,-272.74,-272.74,-45,552,-924,22.1,2.3,-27.7,22.5,2.4,-27.4,5.73,2.33,-28.9,27.8
2012-01-03 01:20:00,0.0,1.9412,0.0014,405.83,0.19,4.0,12.2,138.12,28.24,24.59,36.31,0.04,-272.74,-272.74,-46,552,-925,22.1,2.3,-27.8,22.4,2.4,-27.4,5.73,2.48,-28.8,27.8
2012-01-03 01:21:00,0.0,1.9414,0.0010,405.81,0.20,2.2,7.9,138.12,28.24,24.59,36.31,0.04,-272.74,-272.74,-46,552,-925,22.1,2.4,-27.7,22.4,2.4,-27.4,5.73,2.40,-28.8,27.8
2012-01-03 01:22:00,0.0,1.9421,0.0013,405.84,0.20,2.8,9.4,138.12,28.24,24.60,36.31,0.04,-272.74,-272.74,-46,552,-924,22.1,2.4,-27.7,22.4,2.4,-27.3,5.73,2.29,-28.8,27.8
2012-01-03 01:23:00,0.0,1.9436,0.0019,405.86,0.21,4.7,14.7,138.12,28.24,24.60,36.31,0.04,-272.74,-272.74,-45,552,-925,22.1,2.4,-27.6,22.4,2.4,-27.2,5.73,2.44,-28.8,27.7
2012-01-03 01:24:00,0.0,1.9403,0.0008,405.83,0.21,3.3,11.2,138.12,28.24,24.60,36.30,0.04,-272.74,-272.74,-46,552,-925,22.1,2.4,-27.6,22.4,2.4,-27.2,5.73,2.47,-28.8,27.8
2012-01-03 01:25:00,0.0,1.9401,0.0010,405.76,0.20,1.8,8.6,138.12,28.24,24.60,36.30,0.04,-272.74,-272.74,-46,552,-924,22.1,2.4,-27.6,22.4,2.4,-27.2,5.73,2.31,-28.8,27.8
2012-01-03 01:26:00,0.0,1.9386,0.0013,405.71,0.20,0.3,4.1,138.12,28.24,24.59,36.31,0.04,-272.74,-272.74,-46,552,-924,22.1,2.4,-27.6,22.4,2.4,-27.2,5.73,2.35,-28.8,27.9
2012-01-03 01:27:00,0.0,1.9370,0.0009,405.81,0.19,4.2,11.8,138.12,28.25,24.60,36.30,0.04,-272.74,-272.74,-46,552,-924,22.0,2.4,-27.7,22.4,2.4,-27.3,5.73,2.50,-28.8,27.9
2012-01-03 01:28:00,0.0,1.9387,0.0014,405.82,0.22,3.1,9.8,138.12,28.25,24.59,36.30,0.04,-272.74,-272.74,-46,551,-924,22.0,2.4,-27.8,22.4,2.4,-27.4,5.73,2.36,-28.8,28.0
2012-01-03 01:29:00,0.0,1.9379,0.0010,405.75,0.19,1.5,7.0,138.12,28.25,24.60,36.31,0.04,-272.74,-272.74,-47,551,-924,22.1,2.3,-27.8,22.4,2.4,-27.5,5.73,2.30,-28.8,28.0
2012-01-03 01:30:00,0.0,1.9403,0.0019,405.87,0.19,5.6,13.8,138.12,28.25,24.60,36.30,0.04,-272.74,-272.74,-46,552,-924,22.1,2.3,-27.8,22.4,2.4,-27.5,5.73,2.48,-28.8,28.0
2012-01-03 01:31:00,0.0,1.9378,0.0007,405.71,0.17,3.7,11.4,138.12,28.25,24.60,36.31,0.04,-272.74,-272.74,-46,552,-924,22.1,2.4,-27.7,22.4,2.4,-27.4,5.73,2.40,-28.7,28.0
2012-01-03 01:32:00,0.0,1.9399,0.0012,405.75,0.22,3.2,11.1,138.12,28.25,24.60,36.30,0.04,-272.74,-272.74,-46,552,-924,22.1,2.3,-27.8,22.4,2.4,-27.4,5.73,2.29,-28.7,28.1
2012-01-03 01:33:00,0.0,1.9387,0.0012,405.72,0.22,4.2,14.4,138.12,28.25,24.59,36.31,0.04,-272.74,-272.74,-46,552,-924,22.1,2.4,-27.7,22.4,2.4,-27.4,5.73,2.46,-28.7,28.1
2012-01-03 01:34:00,0.0,1.9414,0.0028,405.86,0.19,2.3,8.9,138.12,28.26,24.60,36.30,0.04,-272.74,-272.74,-46,551,-924,22.1,2.3,-27.8,22.4,2.4,-27.4,5.73,2.44,-28.7,28.1
2012-01-03 01:35:00,0.0,1.9425,0.0022,405.81,0.20,3.7,11.1,138.12,28.26,24.60,36.31,0.04,-272.74,-272.74,-45,551,-924,22.1,2.4,-27.7,22.4,2.4,-27.4,5.73,2.29,-28.7,28.1
2012-01-03 01:36:00,0.0,1.9394,0.0011,405.66,0.19,1.1,5.5,138.12,28.26,24.59,36.31,0.04,-272.74,-272.74,-46,551,-924,22.2,2.4,-27.5,22.4,2.4,-27.2,5.73,2.42,-28.7,28.1
2012-01-03 01:37:00,0.0,1.9376,0.0010,405.67,0.20,4.0,11.4,138.12,28.26,24.59,36.31,0.04,-272.74,-272.74,-46,552,-925,22.2,2.4,-27.6,22.4,2.4,-27.3,5.73,2.48,-28.7,28.1
2012-01-03 01:38:00,0.0,1.9384,0.0012,405.77,0.21,3.7,11.1,138.12,28.26,24.59,36.30,0.04,-272.74,-272.74,-46,552,-924,22.2,2.3,-27.7,22.4,2.4,-27.4,5.73,2.30,-28.7,28.0
2012-01-03 01:39:00,0.0,1.9379,0.0011,405.71,0.20,4.2,11.5,138.12,28.26,24.60,36.31,0.04,-272.74,-272.74,-46,552,-924,22.2,2.3,-27.7,22.5,2.4,-27.4,5.73,2.37,-28.7,28.0
2012-01-03 01:40:00,0.0,1.9395,0.0009,405.73,0.24,3.6,9.3,138.12,28.26,24.59,36.31,0.04,-272.74,-272.74,-46,551,-924,22.2,2.3,-27.7,22.5,2.4,-27.4,5.73,2.50,-28.7,28.0
2012-01-03 01:41:00,0.0,1.9387,0.0010,405.68,0.21,3.5,9.5,138.12,28.26,24.60,36.31,0.04,-272.74,-272.74,-46,552,-924,22.2,2.3,-27.7,22.5,2.4,-27.4,5.73,2.32,-28.6,28.0
2012-01-03 01:42:00,0.0,1.9389,0.0012,405.69,0.20,5.0,13.7,138.12,28.26,24.60,36.31,0.04,-272.74,-272.74,-46,552,-925,22.3,2.3,-27.7,22.5,2.4,-27.4,5.73,2.35,-28.6,28.1
2012-01-03 01:43:00,0.0,1.9395,0.0016,405.66,0.21,6.9,12.4,138.12,28.26,24.59,36.31,0.04,-272.74,-272.74,-46,552,-924,22.3,2.3,-27.7,22.5,2.4,-27.4,5.73,2.49,-28.6,28.1
2012-01-03 01:44:00,0.0,1.9374,0.0009,405.70,0.22,7.6,17.4,138.12,28.26,24.60,36.31,0.04,-272.74,-272.74,-46,552,-924,22.3,2.3,-27.7,22.5,2.4,-27.4,5.73,2.35,-28.6,28.1
2012-01-03 01:45:00,0.0,1.9373,0.0010,405.73,0.20,4.4,14.7,138.12,28.27,24.60,36.30,0.04,-272.74,-272.74,-46,552,-924,22.3,2.3,-27.7,22.5,2.4,-27.4,5.73,2.31,-28.6,28.1
2012-01-03 01:46:00,0.0,1.9401,0.0011,405.76,0.24,9.2,19.1,138.12,28.27,24.60,36.31,0.04,-272.74,-272.74,-46,552,-924,22.3,2.3,-27.8,22.5,2.4,-27.4,5.73,2.49,-28.6,28.1
2012-01-03 01:47:00,0.0,1.9417,0.0012,405.70,0.20,8.7,14.7,138.12,28.27,24.60,36.31,0.04,-272.74,-272.74,-46,552,-924,22.3,2.3,-27.6,22.5,2.4,-27.3,5.73,2.38,-28.6,28.1
2012-01-03 01:48:00,0.0,1.9419,0.0009,405.77,0.20,4.5,10.6,138.12,28.27,24.60,36.31,0.04,-272.74,-272.74,-46,552,-924,22.4,2.3,-27.6,22.5,2.4,-27.2,5.73,2.30,-28.6,28.1
2012-01-03 01:49:00,0.0,1.9439,0.0027,405.86,0.18,7.1,15.1,138.12,28.27,24.60,36.30,0.04,-272.74,-272.74,-46,552,-924,22.3,2.4,-27.5,22.5,2.4,-27.2,5.73,2.49,-28.6,28.1
2012-01-03 01:50:00,0.0,1.9424,0.0009,405.66,0.20,9.9,20.2,138.12,28.27,24.60,36.31,0.04,-272.74,-272.74,-46,552,-924,22.4,2.4,-27.4,22.5,2.4,-27.1,5.73,2.38,-28.6,28.1
2012-01-03 01:51:00,0.0,1.9413,0.0017,405.69,0.22,3.6,10.4,138.12,28.27,24.60,36.31,0.04,-272.74,-272.74,-46,552,-924,22.4,2.4,-27.4,22.5,2.4,-27.1,5.73,2.30,-28.6,28.1
2012-01-03 01:52:00,0.0,1.9461,0.0015,405.79,0.22,5.1,13.7,138.12,28.28,24.60,36.31,0.04,-272.74,-272.74,-46,552,-924,22.4,2.4,-27.5,22.5,2.4,-27.1,5.73,2.49,-28.6,28.1
2012-01-03 01:53:00,0.0,1.9471,0.0017,405.80,0.20,8.2,13.9,138.12,28.28,24.60,36.31,0.04,-272.74,-272.74,-46,552,-924,22.4,2.4,-27.3,22.6,2.5,-27.0,5.73,2.38,-28.6,28.1
2012-01-03 01:54:00,0.0,1.9477,0.0022,405.74,0.20,7.2,15.4,138.12,28.28,24.60,36.31,0.04,-272.74,-272.74,-46,552,-924,22.4,2.4,-27.1,22.6,2.5,-26.8,5.73,2.30,-28.5,28.1
2012-01-03 01:55:00,0.0,1.9436,0.0012,405.77,0.18,7.5,16.1,138.12,28.28,24.60,36.31,0.04,-272.74,-272.74,-46,552,-925,22.4,2.5,-27.1,22.6,2.5,-26.7,5.73,2.49,-28.5,28.1
2012-01-03 01:56:00,0.0,1.9439,0.0025,405.79,0.18,7.6,12.2,138.12,28.28,24.60,36.31,0.04,-272.74,-272.74,-46,553,-925,22.5,2.4,-27.1,22.6,2.5,-26.8,5.73,2.37,-28.5,28.1
2012-01-03 01:57:00,0.0,1.9423,0.0022,405.68,0.19,10.8,20.9,138.12,28.28,24.60,36.31,0.04,-272.74,-272.74,-46,553,-924,22.5,2.4,-27.2,22.6,2.5,-26.9,5.73,2.31,-28.5,28.1
2012-01-03 01:58:00,0.0,1.9459,0.0010,405.80,0.20,8.2,16.5,138.12,28.28,24.60,36.31,0.04,-272.74,-272.74,-46,553,-925,22.5,2.4,-27.3,22.6,2.4,-27.0,5.73,2.49,-28.5,28.2
2012-01-03 01:59:00,0.0,1.9451,0.0010,405.92,0.26,9.2,19.7,138.12,28.28,24.60,36.30,0.04,-272.74,-272.74,-46,553,-925,22.5,2.4,-27.3,22.6,2.5,-26.9,5.73,2.37,-28.5,28.1
2012-01-03 02:00:00,0.0,1.9469,0.0024,405.80,0.20,8.5,15.9,138.12,28.29,24.60,36.31,0.04,-272.74,-272.74,-46,553,-925,22.5,2.4,-27.2,22.7,2.5,-26.9,5.73,2.31,-28.5,28.1
2012-01-03 02:01:00,0.0,1.9492,0.0013,405.74,0.18,5.0,16.0,138.12,28.29,24.60,36.32,0.04,-272.74,-272.74,-46,552,-925,22.5,2.4,-27.2,22.7,2.5,-26.9,5.73,2.51,-28.5,28.1
2012-01-03 02:02:00,0.0,1.9473,0.0010,405.74,0.16,6.7,14.9,138.12,28.29,24.60,36.31,0.04,-272.74,-272.74,-46,552,-925,22.5,2.4,-27.1,22.7,2.5,-26.7,5.73,2.35,-28.4,28.2
2012-01-03 02:03:00,0.0,1.9477,0.0010,405.73,0.21,4.5,12.4,138.12,28.29,24.60,36.31,0.04,-272.74,-272.74,-46,552,-925,22.6,2.5,-27.0,22.7,2.5,-26.7,5.73,2.31,-28.4,28.2
2012-01-03 02:04:00,0.0,1.9476,0.0009,405.83,0.22,6.9,15.6,138.12,28.30,24.60,36.30,0.04,-272.74,-272.74,-46,553,-925,22.6,2.4,-27.0,22.7,2.5,-26.8,5.73,2.50,-28.4,28.2
2012-01-03 02:05:00,0.0,1.9473,0.0010,405.83,0.24,11.0,17.7,138.12,28.30,24.59,36.31,0.04,-272.74,-272.74,-46,553,-924,22.6,2.4,-27.1,22.7,2.5,-26.8,5.73,2.34,-28.4,28.2
2012-01-03 02:06:00,0.0,1.9479,0.0009,405.82,0.20,10.2,20.3,138.12,28.30,24.60,36.30,0.04,-272.74,-272.74,-46,553,-925,22.6,2.4,-27.0,22.7,2.5,-26.7,5.73,2.33,-28.4,28.2
2012-01-03 02:07:00,0.0,1.9472,0.0009,405.83,0.20,11.2,17.6,138.12,28.30,24.60,36.31,0.04,-272.74,-272.74,-46,553,-925,22.6,2.5,-27.0,22.7,2.5,-26.6,5.73,2.50,-28.4,28.2
2012-01-03 02:08:00,0.0,1.9465,0.0008,405.79,0.17,10.7,17.6,138.12,28.30,24.60,36.31,0.04,-272.74,-272.74,-46,553,-925,22.6,2.4,-27.1,22.7,2.5,-26.7,5.73,2.33,-28.4,28.2
2012-01-03 02:09:00,0.0,1.9466,0.0008,405.84,0.15,8.1,16.9,138.11,28.31,24.60,36.30,0.04,-272.74,-272.74,-46,553,-925,22.6,2.4,-27.1,22.7,2.5,-26.7,5.73,2.34,-28.4,28.2
2012-01-03 02:10:00,0.0,1.9460,0.0010,405.79,0.19,8.8,19.1,138.12,28.31,24.60,36.31,0.04,-272.74,-272.74,-46,553,-925,22.6,2.4,-27.1,22.7,2.5,-26.7,5.73,2.50,-28.4,28.2
2012-01-03 02:11:00,0.0,1.9456,0.0009,405.74,0.17,9.3,17.9,138.12,28.31,24.60,36.31,0.04,-272.74,-272.74,-46,553,-925,22.7,2.4,-27.1,22.7,2.5,-26.8,5.73,2.31,-28.4,28.2
2012-01-03 02:12:00,0.0,1.9464,0.0009,405.79,0.22,8.2,17.5,138.11,28.31,24.60,36.31,0.04,-272.74,-272.74,-46,553,-925,22.6,2.4,-27.2,22.7,2.5,-26.8,5.73,2.37,-28.3,28.2
2012-01-03 02:13:00,0.0,1.9460,0.0010,405.77,0.19,10.4,17.6,138.12,28.32,24.60,36.31,0.04,-272.74,-272.74,-47,553,-925,22.7,2.4,-27.1,22.7,2.5,-26.9,5.73,2.49,-28.3,28.2
2012-01-03 02:14:00,0.0,1.9461,0.0008,405.72,0.22,9.3,18.1,138.12,28.32,24.60,36.31,0.04,-272.74,-272.74,-46,553,-925,22.7,2.4,-27.2,22.8,2.5,-26.8,5.73,2.29,-28.3,28.2
2012-01-03 02:15:00,0.0,1.9471,0.0010,405.71,0.21,12.8,20.2,138.12,28.32,24.60,36.31,0.04,-272.74,-272.74,-46,553,-925,22.7,2.4,-27.2,22.8,2.5,-26.8,5.73,2.40,-28.3,28.2
2012-01-03 02:16:00,0.0,1.9473,0.0010,405.74,0.20,14.5,22.2,138.12,28.32,24.60,36.31,0.04,-272.74,-272.74,-46,553,-925,22.7,2.4,-27.1,22.8,2.5,-26.8,5.73,2.48,-28.3,28.2
2012-01-03 02:17:00,0.0,1.9471,0.0009,405.69,0.23,11.6,17.7,138.12,28.32,24.60,36.31,0.04,-272.74,-272.74,-46,553,-925,22.7,2.4,-27.1,22.8,2.5,-26.8,5.73,2.28,-28.3,28.2
2012-01-03 02:18:00,0.0,1.9469,0.0008,405.74,0.21,13.0,19.5,138.12,28.32,24.60,36.31,0.04,-272.74,-272.74,-46,553,-925,22.7,2.4,-27.2,22.8,2.5,-26.8,5.73,2.42,-28.3,28.2